Time,TemperatureF,DewpointF,PressureIn,WindDirection,WindDirectionDegrees,WindSpeedMPH,WindSpeedGustMPH,Humidity,HourlyPrecipIn,Conditions,Clouds,dailyrainin,SoftwareType,DateUTC
2013-04-15 00:00:00,61.5,56.0,29.63,SSE,159,0.0,0.0,82,0.00,,---,0.00,VWS V14.01,2013-04-15 05:00:00,
2013-04-15 00:05:00,61.3,56.1,29.63,SSE,159,0.0,0.0,83,0.00,,---,0.00,VWS V14.01,2013-04-15 05:05:00,
2013-04-15 00:10:00,61.3,56.1,29.63,SSE,159,0.0,0.0,83,0.00,,---,0.00,VWS V14.01,2013-04-15 05:10:00,
2013-04-15 00:15:00,61.5,56.3,29.63,SSE,159,0.0,0.0,83,0.00,,---,0.00,VWS V14.01,2013-04-15 05:15:00,
2013-04-15 00:20:00,61.5,56.3,29.63,SSE,159,0.0,0.0,83,0.00,,---,0.00,VWS V14.01,2013-04-15 05:20:00,
2013-04-15 00:25:00,61.5,56.6,29.63,SSE,159,0.0,0.0,84,0.00,,---,0.00,VWS V14.01,2013-04-15 05:25:00,
2013-04-15 00:30:00,61.3,56.4,29.63,SSE,159,0.0,0.0,84,0.00,,---,0.00,VWS V14.01,2013-04-15 05:30:00,
2013-04-15 00:35:00,61.3,56.4,29.63,SSE,159,0.0,0.0,84,0.00,,---,0.00,VWS V14.01,2013-04-15 05:35:00,
2013-04-15 00:40:00,61.6,56.7,29.64,SSE,159,0.0,0.0,84,0.00,,---,0.00,VWS V14.01,2013-04-15 05:40:00,
2013-04-15 00:45:00,61.8,56.9,29.64,SSE,159,0.0,0.0,84,0.00,,---,0.00,VWS V14.01,2013-04-15 05:45:00,
2013-04-15 00:50:00,61.5,56.6,29.64,SSE,159,0.0,0.0,84,0.00,,---,0.00,VWS V14.01,2013-04-15 05:50:00,
2013-04-15 00:55:00,61.5,56.6,29.64,SSE,159,0.0,0.0,84,0.00,,---,0.00,VWS V14.01,2013-04-15 05:55:00,
2013-04-15 01:00:00,61.3,56.4,29.64,SSE,159,0.0,0.0,84,0.00,,---,0.00,VWS V14.01,2013-04-15 06:00:00,
2013-04-15 01:05:00,61.3,56.4,29.64,SSE,159,0.0,1.0,84,0.00,,---,0.00,VWS V14.01,2013-04-15 06:05:00,
2013-04-15 01:10:00,61.2,56.3,29.64,SSE,159,0.0,0.0,84,0.00,,---,0.00,VWS V14.01,2013-04-15 06:10:00,
2013-04-15 01:15:00,60.9,56.4,29.64,SSE,159,0.0,0.0,85,0.00,,---,0.00,VWS V14.01,2013-04-15 06:15:00,
2013-04-15 01:20:00,60.9,56.7,29.64,SSE,159,0.0,0.0,86,0.00,,---,0.00,VWS V14.01,2013-04-15 06:20:00,
2013-04-15 01:25:00,60.5,56.3,29.63,SSE,159,0.0,0.0,86,0.00,,---,0.00,VWS V14.01,2013-04-15 06:25:00,
2013-04-15 01:30:00,60.2,55.7,29.63,SSE,159,0.0,0.0,85,0.00,,---,0.00,VWS V14.01,2013-04-15 06:30:00,
2013-04-15 01:35:00,60.1,55.9,29.64,SSE,159,0.0,0.0,86,0.00,,---,0.00,VWS V14.01,2013-04-15 06:35:00,
2013-04-15 01:40:00,60.1,56.2,29.63,SSE,159,0.0,0.0,87,0.00,,---,0.00,VWS V14.01,2013-04-15 06:40:00,
2013-04-15 01:45:00,59.9,55.7,29.63,SSE,159,0.0,0.0,86,0.00,,---,0.00,VWS V14.01,2013-04-15 06:45:00,
2013-04-15 01:50:00,59.9,56.0,29.63,SSE,159,0.0,0.0,87,0.00,,---,0.00,VWS V14.01,2013-04-15 06:50:00,
2013-04-15 01:55:00,59.9,56.7,29.63,SSE,159,0.0,0.0,89,0.00,,---,0.00,VWS V14.01,2013-04-15 06:55:00,
2013-04-15 02:00:00,60.1,56.8,29.63,SSE,159,0.0,0.0,89,0.00,,---,0.00,VWS V14.01,2013-04-15 07:00:00,
2013-04-15 02:05:00,60.2,57.0,29.63,SSE,159,0.0,0.0,89,0.00,,---,0.00,VWS V14.01,2013-04-15 07:05:00,
2013-04-15 02:41:00,61.0,57.7,29.62,SSE,156,0.0,0.0,89,0.00,,---,0.00,VWS V14.01,2013-04-15 07:41:00,
2013-04-15 02:42:00,61.0,57.7,29.62,SSE,156,0.0,0.0,89,0.00,,---,0.00,VWS V14.01,2013-04-15 07:42:00,
2013-04-15 02:47:00,61.3,58.0,29.62,SE,125,0.0,2.0,89,0.00,,---,0.00,VWS V14.01,2013-04-15 07:47:00,
2013-04-15 02:48:00,61.3,58.0,29.62,SE,125,0.0,2.0,89,0.00,,---,0.00,VWS V14.01,2013-04-15 07:48:00,
2013-04-15 02:50:00,61.3,57.7,29.62,SE,125,0.0,0.0,88,0.00,,---,0.00,VWS V14.01,2013-04-15 07:50:00,
2013-04-15 02:55:00,61.6,57.7,29.62,SE,125,0.0,1.0,87,0.00,,---,0.00,VWS V14.01,2013-04-15 07:55:00,
2013-04-15 03:00:00,61.6,57.7,29.62,SE,125,0.0,0.0,87,0.00,,---,0.00,VWS V14.01,2013-04-15 08:00:00,
2013-04-15 03:05:00,61.6,57.7,29.62,SE,125,0.0,0.0,87,0.00,,---,0.00,VWS V14.01,2013-04-15 08:05:00,
2013-04-15 03:10:00,61.8,58.2,29.62,SE,125,0.0,0.0,88,0.00,,---,0.00,VWS V14.01,2013-04-15 08:10:00,
2013-04-15 03:15:00,61.8,58.2,29.62,SE,125,0.0,0.0,88,0.00,,---,0.00,VWS V14.01,2013-04-15 08:15:00,
2013-04-15 03:20:00,62.0,58.4,29.62,ESE,123,0.0,0.0,88,0.00,,---,0.00,VWS V14.01,2013-04-15 08:20:00,
2013-04-15 03:25:00,62.0,58.1,29.62,ESE,123,0.0,0.0,87,0.00,,---,0.00,VWS V14.01,2013-04-15 08:25:00,
2013-04-15 03:31:00,62.0,58.4,29.62,ESE,123,1.0,1.0,88,0.00,,---,0.00,VWS V14.01,2013-04-15 08:31:00,
2013-04-15 03:35:00,62.1,58.5,29.62,ESE,123,0.0,1.0,88,0.00,,---,0.00,VWS V14.01,2013-04-15 08:35:00,
2013-04-15 03:40:00,62.1,58.2,29.62,ESE,123,0.0,2.0,87,0.00,,---,0.00,VWS V14.01,2013-04-15 08:40:00,
2013-04-15 03:45:00,62.1,58.5,29.62,ESE,123,0.0,0.0,88,0.00,,---,0.00,VWS V14.01,2013-04-15 08:45:00,
2013-04-15 03:50:00,62.3,58.7,29.62,ESE,123,0.0,0.0,88,0.00,,---,0.00,VWS V14.01,2013-04-15 08:50:00,
2013-04-15 03:55:00,62.1,58.2,29.62,ESE,123,1.0,1.0,87,0.00,,---,0.00,VWS V14.01,2013-04-15 08:55:00,
2013-04-15 04:00:00,62.1,58.5,29.62,ESE,123,0.0,0.0,88,0.00,,---,0.00,VWS V14.01,2013-04-15 09:00:00,
2013-04-15 04:05:00,62.1,58.5,29.62,ESE,123,0.0,0.0,88,0.00,,---,0.00,VWS V14.01,2013-04-15 09:05:00,
2013-04-15 04:10:00,62.0,58.4,29.63,ESE,123,0.0,0.0,88,0.00,,---,0.00,VWS V14.01,2013-04-15 09:10:00,
2013-04-15 04:15:00,62.0,58.7,29.62,ESE,123,0.0,0.0,89,0.00,,---,0.00,VWS V14.01,2013-04-15 09:15:00,
2013-04-15 04:20:00,61.8,58.5,29.63,ESE,123,0.0,0.0,89,0.00,,---,0.00,VWS V14.01,2013-04-15 09:20:00,
2013-04-15 04:25:00,61.6,58.3,29.63,SE,126,0.0,0.0,89,0.00,,---,0.00,VWS V14.01,2013-04-15 09:25:00,
2013-04-15 04:30:00,61.8,58.5,29.63,ESE,123,0.0,0.0,89,0.00,,---,0.00,VWS V14.01,2013-04-15 09:30:00,
2013-04-15 04:35:00,61.8,58.8,29.63,ESE,123,0.0,0.0,90,0.00,,---,0.00,VWS V14.01,2013-04-15 09:35:00,
2013-04-15 04:40:00,62.0,59.0,29.63,SE,126,0.0,0.0,90,0.00,,---,0.00,VWS V14.01,2013-04-15 09:40:00,
2013-04-15 04:45:00,62.1,59.1,29.64,SE,126,0.0,0.0,90,0.00,,---,0.00,VWS V14.01,2013-04-15 09:45:00,
2013-04-15 04:50:00,62.3,59.3,29.64,SE,126,0.0,0.0,90,0.00,,---,0.00,VWS V14.01,2013-04-15 09:50:00,
2013-04-15 04:55:00,62.4,59.4,29.64,SE,125,0.0,0.0,90,0.00,,---,0.00,VWS V14.01,2013-04-15 09:55:00,
2013-04-15 05:00:00,62.6,59.6,29.64,SE,125,0.0,0.0,90,0.00,,---,0.00,VWS V14.01,2013-04-15 10:00:00,
2013-04-15 05:05:00,62.7,60.0,29.64,SE,125,0.0,0.0,91,0.00,,---,0.00,VWS V14.01,2013-04-15 10:05:00,
2013-04-15 05:10:00,62.9,59.9,29.64,SE,125,0.0,0.0,90,0.00,,---,0.00,VWS V14.01,2013-04-15 10:10:00,
2013-04-15 05:15:00,63.2,60.5,29.64,SE,125,0.0,0.0,91,0.00,,---,0.00,VWS V14.01,2013-04-15 10:15:00,
2013-04-15 05:20:00,63.5,60.8,29.64,SE,125,0.0,0.0,91,0.00,,---,0.00,VWS V14.01,2013-04-15 10:20:00,
2013-04-15 05:25:00,63.7,61.0,29.64,SE,125,0.0,1.0,91,0.00,,---,0.00,VWS V14.01,2013-04-15 10:25:00,
2013-04-15 05:30:00,63.9,60.9,29.64,East,92,0.0,0.0,90,0.00,,---,0.00,VWS V14.01,2013-04-15 10:30:00,
2013-04-15 05:35:00,64.0,61.0,29.64,East,92,0.0,0.0,90,0.00,,---,0.00,VWS V14.01,2013-04-15 10:35:00,
2013-04-15 05:40:00,64.2,61.5,29.64,East,92,0.0,1.0,91,0.00,,---,0.00,VWS V14.01,2013-04-15 10:40:00,
2013-04-15 05:45:00,64.2,61.5,29.64,East,92,0.0,1.0,91,0.00,,---,0.00,VWS V14.01,2013-04-15 10:45:00,
2013-04-15 05:50:00,64.3,61.6,29.65,ENE,77,1.0,5.0,91,0.00,,---,0.00,VWS V14.01,2013-04-15 10:50:00,
2013-04-15 05:55:00,64.5,61.5,29.65,ENE,77,0.0,5.0,90,0.00,,---,0.00,VWS V14.01,2013-04-15 10:55:00,
2013-04-15 06:00:00,64.5,61.5,29.65,ENE,75,0.0,0.0,90,0.00,,---,0.00,VWS V14.01,2013-04-15 11:00:00,
2013-04-15 06:05:00,64.7,61.7,29.65,ENE,75,0.0,0.0,90,0.00,,---,0.00,VWS V14.01,2013-04-15 11:05:00,
2013-04-15 06:10:00,64.7,62.0,29.65,ENE,59,0.0,0.0,91,0.00,,---,0.00,VWS V14.01,2013-04-15 11:10:00,
2013-04-15 06:16:00,64.8,62.1,29.65,ENE,59,0.0,1.0,91,0.00,,---,0.00,VWS V14.01,2013-04-15 11:16:00,
2013-04-15 06:21:00,64.8,62.1,29.65,ENE,59,0.0,0.0,91,0.00,,---,0.00,VWS V14.01,2013-04-15 11:21:00,
2013-04-15 06:26:00,65.0,62.3,29.66,ENE,59,1.0,3.0,91,0.00,,---,0.00,VWS V14.01,2013-04-15 11:26:00,
2013-04-15 06:31:00,65.0,62.3,29.66,ENE,59,0.0,0.0,91,0.00,,---,0.00,VWS V14.01,2013-04-15 11:31:00,
2013-04-15 06:36:00,65.0,62.3,29.66,ENE,59,0.0,1.0,91,0.00,,---,0.00,VWS V14.01,2013-04-15 11:36:00,
2013-04-15 06:41:00,65.0,62.3,29.67,ENE,59,1.0,2.0,91,0.00,,---,0.00,VWS V14.01,2013-04-15 11:41:00,
2013-04-15 06:46:00,65.0,62.3,29.67,ENE,59,1.0,2.0,91,0.00,,---,0.00,VWS V14.01,2013-04-15 11:46:00,
2013-04-15 06:51:00,65.0,62.3,29.67,ENE,59,0.0,1.0,91,0.00,,---,0.00,VWS V14.01,2013-04-15 11:51:00,
2013-04-15 06:56:00,65.0,62.3,29.67,ENE,59,3.0,5.0,91,0.00,,---,0.00,VWS V14.01,2013-04-15 11:56:00,
2013-04-15 07:01:00,65.0,62.3,29.68,ENE,59,0.0,0.0,91,0.00,,---,0.00,VWS V14.01,2013-04-15 12:01:00,
2013-04-15 07:07:00,65.2,62.5,29.68,ENE,59,0.0,5.0,91,0.00,,---,0.00,VWS V14.01,2013-04-15 12:07:00,
2013-04-15 07:13:00,65.2,62.5,29.69,ENE,59,0.0,0.0,91,0.00,,---,0.00,VWS V14.01,2013-04-15 12:13:00,
2013-04-15 07:18:00,65.2,62.5,29.69,ENE,59,0.0,3.0,91,0.00,,---,0.00,VWS V14.01,2013-04-15 12:18:00,
2013-04-15 07:23:00,65.2,62.5,29.69,ENE,57,0.0,1.0,91,0.00,,---,0.00,VWS V14.01,2013-04-15 12:23:00,
2013-04-15 07:28:00,65.2,62.5,29.69,ENE,59,0.0,3.0,91,0.00,,---,0.00,VWS V14.01,2013-04-15 12:28:00,
2013-04-15 07:33:00,65.2,62.5,29.69,ENE,59,0.0,0.0,91,0.00,,---,0.00,VWS V14.01,2013-04-15 12:33:00,
2013-04-15 07:38:00,65.3,62.6,29.70,ENE,59,0.0,5.0,91,0.00,,---,0.00,VWS V14.01,2013-04-15 12:38:00,
2013-04-15 07:43:00,65.3,62.6,29.70,ENE,57,0.0,3.0,91,0.00,,---,0.00,VWS V14.01,2013-04-15 12:43:00,
2013-04-15 07:48:00,65.3,62.6,29.70,ENE,59,0.0,3.0,91,0.00,,---,0.00,VWS V14.01,2013-04-15 12:48:00,
2013-04-15 07:53:00,65.5,62.8,29.70,ENE,59,1.0,1.0,91,0.00,,---,0.00,VWS V14.01,2013-04-15 12:53:00,
2013-04-15 07:58:00,65.5,62.8,29.70,ENE,59,0.0,3.0,91,0.00,,---,0.00,VWS V14.01,2013-04-15 12:58:00,
2013-04-15 08:03:00,65.6,62.9,29.71,ENE,59,0.0,0.0,91,0.00,,---,0.00,VWS V14.01,2013-04-15 13:03:00,
2013-04-15 08:08:00,65.6,62.9,29.71,ENE,59,0.0,2.0,91,0.00,,---,0.00,VWS V14.01,2013-04-15 13:08:00,
2013-04-15 08:14:00,65.8,63.1,29.71,ENE,59,0.0,5.0,91,0.00,,---,0.00,VWS V14.01,2013-04-15 13:14:00,
2013-04-15 08:19:00,65.8,63.1,29.72,ENE,59,2.0,5.0,91,0.00,,---,0.00,VWS V14.01,2013-04-15 13:19:00,
2013-04-15 08:24:00,65.8,63.1,29.72,ENE,59,3.0,6.0,91,0.00,,---,0.00,VWS V14.01,2013-04-15 13:24:00,
2013-04-15 08:29:00,66.0,63.0,29.72,ENE,59,1.0,6.0,90,0.00,,---,0.00,VWS V14.01,2013-04-15 13:29:00,
2013-04-15 08:34:00,66.1,63.1,29.72,ENE,59,1.0,1.0,90,0.00,,---,0.00,VWS V14.01,2013-04-15 13:34:00,
2013-04-15 08:39:00,66.1,63.1,29.73,ENE,60,0.0,3.0,90,0.00,,---,0.00,VWS V14.01,2013-04-15 13:39:00,
2013-04-15 08:44:00,66.1,63.1,29.73,ENE,60,0.0,3.0,90,0.00,,---,0.00,VWS V14.01,2013-04-15 13:44:00,
2013-04-15 08:49:00,66.3,63.3,29.73,NE,40,6.0,7.0,90,0.00,,---,0.00,VWS V14.01,2013-04-15 13:49:00,
2013-04-15 08:54:00,66.3,63.3,29.73,NE,42,1.0,3.0,90,0.00,,---,0.00,VWS V14.01,2013-04-15 13:54:00,
2013-04-15 08:59:00,66.4,63.4,29.73,NE,42,1.0,3.0,90,0.00,,---,0.00,VWS V14.01,2013-04-15 13:59:00,
2013-04-15 09:04:00,66.4,63.4,29.73,NE,42,0.0,3.0,90,0.00,,---,0.00,VWS V14.01,2013-04-15 14:04:00,
2013-04-15 09:09:00,66.4,63.4,29.74,NE,42,3.0,5.0,90,0.00,,---,0.00,VWS V14.01,2013-04-15 14:09:00,
2013-04-15 09:14:00,66.6,63.3,29.74,NE,44,1.0,3.0,89,0.00,,---,0.00,VWS V14.01,2013-04-15 14:14:00,
2013-04-15 09:20:00,66.6,63.3,29.74,NE,44,0.0,3.0,89,0.00,,---,0.00,VWS V14.01,2013-04-15 14:20:00,
2013-04-15 09:25:00,66.8,63.5,29.74,NE,44,0.0,5.0,89,0.00,,---,0.00,VWS V14.01,2013-04-15 14:25:00,
2013-04-15 09:30:00,66.9,63.6,29.74,NE,49,0.0,0.0,89,0.00,,---,0.00,VWS V14.01,2013-04-15 14:30:00,
2013-04-15 09:35:00,66.9,63.6,29.74,NE,49,1.0,5.0,89,0.00,,---,0.00,VWS V14.01,2013-04-15 14:35:00,
2013-04-15 09:40:00,67.1,63.8,29.74,NE,49,0.0,0.0,89,0.00,,---,0.00,VWS V14.01,2013-04-15 14:40:00,
2013-04-15 09:45:00,67.3,64.0,29.74,NE,49,1.0,5.0,89,0.00,,---,0.00,VWS V14.01,2013-04-15 14:45:00,
2013-04-15 09:50:00,67.4,64.1,29.74,NE,49,2.0,2.0,89,0.00,,---,0.00,VWS V14.01,2013-04-15 14:50:00,
2013-04-15 09:55:00,67.6,64.2,29.74,NE,53,0.0,6.0,89,0.00,,---,0.00,VWS V14.01,2013-04-15 14:55:00,
2013-04-15 10:00:00,67.6,63.9,29.75,NE,53,0.0,0.0,88,0.00,,---,0.00,VWS V14.01,2013-04-15 15:00:00,
2013-04-15 10:05:00,67.9,64.2,29.75,NE,50,1.0,6.0,88,0.00,,---,0.00,VWS V14.01,2013-04-15 15:05:00,
2013-04-15 10:10:00,67.9,64.2,29.75,NE,51,1.0,1.0,88,0.00,,---,0.00,VWS V14.01,2013-04-15 15:10:00,
2013-04-15 10:15:00,68.3,64.3,29.75,NE,51,0.0,3.0,87,0.00,,---,0.00,VWS V14.01,2013-04-15 15:15:00,
2013-04-15 10:20:00,68.4,64.4,29.76,NE,51,2.0,2.0,87,0.00,,---,0.00,VWS V14.01,2013-04-15 15:20:00,
2013-04-15 10:25:00,68.6,64.6,29.76,ENE,63,3.0,7.0,87,0.00,,---,0.00,VWS V14.01,2013-04-15 15:25:00,
2013-04-15 10:30:00,68.8,64.4,29.76,ENE,63,2.0,3.0,86,0.00,,---,0.00,VWS V14.01,2013-04-15 15:30:00,
2013-04-15 10:35:00,68.9,64.6,29.76,ENE,63,1.0,3.0,86,0.00,,---,0.00,VWS V14.01,2013-04-15 15:35:00,
2013-04-15 10:40:00,69.3,64.6,29.76,ENE,63,5.0,7.0,85,0.00,,---,0.00,VWS V14.01,2013-04-15 15:40:00,
2013-04-15 10:45:00,69.6,64.9,29.76,ENE,64,1.0,7.0,85,0.00,,---,0.00,VWS V14.01,2013-04-15 15:45:00,
2013-04-15 10:50:00,69.9,65.2,29.76,ENE,64,1.0,3.0,85,0.00,,---,0.00,VWS V14.01,2013-04-15 15:50:00,
2013-04-15 10:55:00,70.3,64.9,29.76,ENE,64,1.0,5.0,83,0.00,,---,0.00,VWS V14.01,2013-04-15 15:55:00,
2013-04-15 11:00:00,70.6,65.5,29.76,ENE,73,0.0,0.0,84,0.00,,---,0.00,VWS V14.01,2013-04-15 16:00:00,
2013-04-15 11:05:00,70.8,65.4,29.76,ENE,63,2.0,10.0,83,0.00,,---,0.00,VWS V14.01,2013-04-15 16:05:00,
2013-04-15 11:11:00,71.1,65.3,29.76,ENE,63,2.0,2.0,82,0.00,,---,0.00,VWS V14.01,2013-04-15 16:11:00,
2013-04-15 11:16:00,71.3,65.5,29.77,ESE,111,2.0,7.0,82,0.00,,---,0.00,VWS V14.01,2013-04-15 16:16:00,
2013-04-15 11:21:00,71.6,65.5,29.76,ESE,114,3.0,3.0,81,0.00,,---,0.00,VWS V14.01,2013-04-15 16:21:00,
2013-04-15 11:26:00,71.8,65.3,29.76,SE,138,5.0,7.0,80,0.00,,---,0.00,VWS V14.01,2013-04-15 16:26:00,
2013-04-15 11:31:00,72.0,65.5,29.76,SE,139,5.0,5.0,80,0.00,,---,0.00,VWS V14.01,2013-04-15 16:31:00,
2013-04-15 11:36:00,72.3,65.8,29.76,SE,138,7.0,7.0,80,0.00,,---,0.00,VWS V14.01,2013-04-15 16:36:00,
2013-04-15 11:41:00,72.5,65.6,29.76,SE,146,3.0,3.0,79,0.00,,---,0.00,VWS V14.01,2013-04-15 16:41:00,
2013-04-15 11:47:00,73.0,65.4,29.76,ENE,71,0.0,6.0,77,0.00,,---,0.00,VWS V14.01,2013-04-15 16:47:00,
2013-04-15 11:52:00,73.2,65.9,29.76,East,83,6.0,6.0,78,0.00,,---,0.00,VWS V14.01,2013-04-15 16:52:00,
2013-04-15 11:57:00,73.3,65.3,29.76,East,101,5.0,6.0,76,0.00,,---,0.00,VWS V14.01,2013-04-15 16:57:00,
2013-04-15 12:02:00,73.5,65.5,29.76,SE,138,0.0,7.0,76,0.00,,---,0.00,VWS V14.01,2013-04-15 17:02:00,
2013-04-15 12:07:00,73.5,65.5,29.76,ENE,66,2.0,7.0,76,0.00,,---,0.00,VWS V14.01,2013-04-15 17:07:00,
2013-04-15 12:12:00,74.4,66.3,29.75,SSE,163,7.0,7.0,76,0.00,,---,0.00,VWS V14.01,2013-04-15 17:12:00,
2013-04-15 12:17:00,75.4,66.5,29.75,East,80,3.0,7.0,74,0.00,,---,0.00,VWS V14.01,2013-04-15 17:17:00,
2013-04-15 12:21:00,75.8,65.7,29.75,SE,143,2.0,5.0,71,0.00,,---,0.00,VWS V14.01,2013-04-15 17:21:00,
2013-04-15 12:25:00,75.8,65.7,29.75,SSW,194,5.0,6.0,71,0.00,,---,0.00,VWS V14.01,2013-04-15 17:25:00,
2013-04-15 12:30:00,75.8,65.7,29.75,SE,138,2.0,6.0,71,0.00,,---,0.00,VWS V14.01,2013-04-15 17:30:00,
2013-04-15 12:35:00,76.1,65.2,29.75,SSE,149,10.0,11.0,69,0.00,,---,0.00,VWS V14.01,2013-04-15 17:35:00,
2013-04-15 12:40:00,76.7,65.8,29.74,ENE,73,2.0,11.0,69,0.00,,---,0.00,VWS V14.01,2013-04-15 17:40:00,
2013-04-15 12:45:00,77.4,65.2,29.74,ENE,71,5.0,7.0,66,0.00,,---,0.00,VWS V14.01,2013-04-15 17:45:00,
2013-04-15 12:51:00,77.6,65.8,29.74,South,174,5.0,6.0,67,0.00,,---,0.00,VWS V14.01,2013-04-15 17:51:00,
2013-04-15 12:57:00,77.0,64.3,29.74,ENE,68,3.0,11.0,65,0.00,,---,0.00,VWS V14.01,2013-04-15 17:57:00,
2013-04-15 13:02:00,76.8,65.0,29.74,SE,125,3.0,6.0,67,0.00,,---,0.00,VWS V14.01,2013-04-15 18:02:00,
2013-04-15 13:07:00,77.0,65.2,29.74,ESE,111,3.0,8.0,67,0.00,,---,0.00,VWS V14.01,2013-04-15 18:07:00,
2013-04-15 13:12:00,77.6,65.3,29.74,SE,139,3.0,6.0,66,0.00,,---,0.00,VWS V14.01,2013-04-15 18:12:00,
2013-04-15 13:17:00,78.1,65.4,29.73,SSE,167,3.0,11.0,65,0.00,,---,0.00,VWS V14.01,2013-04-15 18:17:00,
2013-04-15 13:22:00,78.1,65.4,29.73,SE,136,2.0,7.0,65,0.00,,---,0.00,VWS V14.01,2013-04-15 18:22:00,
2013-04-15 13:27:00,78.3,65.6,29.73,SSE,166,3.0,8.0,65,0.00,,---,0.00,VWS V14.01,2013-04-15 18:27:00,
2013-04-15 13:29:00,78.5,65.3,29.73,South,176,6.0,14.0,64,0.00,,---,0.00,VWS V14.01,2013-04-15 18:29:00,
2013-04-15 13:30:00,78.5,65.3,29.73,South,180,11.0,11.0,64,0.00,,---,0.00,VWS V14.01,2013-04-15 18:30:00,
2013-04-15 13:35:00,78.8,65.2,29.73,SE,133,7.0,11.0,63,0.00,,---,0.00,VWS V14.01,2013-04-15 18:35:00,
2013-04-15 13:40:00,79.2,65.1,29.72,ENE,71,1.0,3.0,62,0.00,,---,0.00,VWS V14.01,2013-04-15 18:40:00,
2013-04-15 13:45:00,79.9,66.7,29.72,SE,142,7.0,12.0,64,0.00,,---,0.00,VWS V14.01,2013-04-15 18:45:00,
2013-04-15 13:50:00,80.5,65.8,29.72,SSE,150,2.0,5.0,61,0.00,,---,0.00,VWS V14.01,2013-04-15 18:50:00,
2013-04-15 13:55:00,80.7,65.5,29.72,ENE,59,1.0,10.0,60,0.00,,---,0.00,VWS V14.01,2013-04-15 18:55:00,
2013-04-15 14:00:00,81.1,65.9,29.72,SE,146,5.0,5.0,60,0.00,,---,0.00,VWS V14.01,2013-04-15 19:00:00,
2013-04-15 14:05:00,81.4,65.7,29.72,SE,139,5.0,10.0,59,0.00,,---,0.00,VWS V14.01,2013-04-15 19:05:00,
2013-04-15 14:10:00,81.2,65.0,29.71,East,83,11.0,11.0,58,0.00,,---,0.00,VWS V14.01,2013-04-15 19:10:00,
2013-04-15 14:15:00,80.9,66.2,29.71,SE,139,2.0,11.0,61,0.00,,---,0.00,VWS V14.01,2013-04-15 19:15:00,
2013-04-15 14:20:00,80.9,66.7,29.71,ENE,64,8.0,8.0,62,0.00,,---,0.00,VWS V14.01,2013-04-15 19:20:00,
2013-04-15 14:25:00,80.9,65.2,29.71,SE,136,3.0,10.0,59,0.00,,---,0.00,VWS V14.01,2013-04-15 19:25:00,
2013-04-15 14:30:00,81.4,65.2,29.71,East,84,2.0,3.0,58,0.00,,---,0.00,VWS V14.01,2013-04-15 19:30:00,
2013-04-15 14:36:00,81.8,66.1,29.71,SE,139,7.0,10.0,59,0.00,,---,0.00,VWS V14.01,2013-04-15 19:36:00,
2013-04-15 14:41:00,82.2,65.5,29.71,SSE,149,11.0,11.0,57,0.00,,---,0.00,VWS V14.01,2013-04-15 19:41:00,
2013-04-15 14:46:00,82.6,65.8,29.71,SE,135,2.0,11.0,57,0.00,,---,0.00,VWS V14.01,2013-04-15 19:46:00,
2013-04-15 14:52:00,83.2,65.9,29.71,South,181,7.0,8.0,56,0.00,,---,0.00,VWS V14.01,2013-04-15 19:52:00,
2013-04-15 14:57:00,83.4,66.1,29.70,South,186,6.0,14.0,56,0.00,,---,0.00,VWS V14.01,2013-04-15 19:57:00,
2013-04-15 14:58:00,83.4,66.1,29.70,South,176,10.0,14.0,56,0.00,,---,0.00,VWS V14.01,2013-04-15 19:58:00,
2013-04-15 15:02:00,83.6,65.7,29.70,SSE,156,6.0,11.0,55,0.00,,---,0.00,VWS V14.01,2013-04-15 20:02:00,
2013-04-15 15:07:00,84.0,67.7,29.69,SSE,162,5.0,11.0,58,0.00,,---,0.00,VWS V14.01,2013-04-15 20:07:00,
2013-04-15 15:12:00,84.3,66.4,29.69,SSE,164,7.0,11.0,55,0.00,,---,0.00,VWS V14.01,2013-04-15 20:12:00,
2013-04-15 15:17:00,84.3,65.3,29.69,SSE,162,5.0,11.0,53,0.00,,---,0.00,VWS V14.01,2013-04-15 20:17:00,
2013-04-15 15:22:00,84.3,65.9,29.69,SE,139,10.0,12.0,54,0.00,,---,0.00,VWS V14.01,2013-04-15 20:22:00,
2013-04-15 15:27:00,84.3,65.3,29.69,SSE,156,5.0,12.0,53,0.00,,---,0.00,VWS V14.01,2013-04-15 20:27:00,
2013-04-15 15:32:00,84.5,67.1,29.68,SE,135,6.0,6.0,56,0.00,,---,0.00,VWS V14.01,2013-04-15 20:32:00,
2013-04-15 15:37:00,85.3,66.2,29.68,SSW,194,6.0,7.0,53,0.00,,---,0.00,VWS V14.01,2013-04-15 20:37:00,
2013-04-15 15:42:00,85.7,66.6,29.68,ENE,57,8.0,8.0,53,0.00,,---,0.00,VWS V14.01,2013-04-15 20:42:00,
2013-04-15 15:47:00,85.3,66.2,29.68,SE,139,5.0,13.0,53,0.00,,---,0.00,VWS V14.01,2013-04-15 20:47:00,
2013-04-15 15:52:00,85.1,66.1,29.68,South,176,6.0,7.0,53,0.00,,---,0.00,VWS V14.01,2013-04-15 20:52:00,
2013-04-15 15:57:00,85.5,64.8,29.68,SSE,157,6.0,10.0,50,0.00,,---,0.00,VWS V14.01,2013-04-15 20:57:00,
2013-04-15 16:02:00,85.7,65.5,29.68,ENE,67,3.0,5.0,51,0.00,,---,0.00,VWS V14.01,2013-04-15 21:02:00,
2013-04-15 16:07:00,86.1,65.3,29.67,SE,140,5.0,12.0,50,0.00,,---,0.00,VWS V14.01,2013-04-15 21:07:00,
2013-04-15 16:12:00,86.1,64.7,29.67,ESE,108,5.0,7.0,49,0.00,,---,0.00,VWS V14.01,2013-04-15 21:12:00,
2013-04-15 16:17:00,86.1,64.7,29.67,SSW,197,7.0,8.0,49,0.00,,---,0.00,VWS V14.01,2013-04-15 21:17:00,
2013-04-15 16:22:00,86.1,65.3,29.67,SSE,149,2.0,7.0,50,0.00,,---,0.00,VWS V14.01,2013-04-15 21:22:00,
2013-04-15 16:27:00,86.3,64.3,29.67,SSE,162,5.0,10.0,48,0.00,,---,0.00,VWS V14.01,2013-04-15 21:27:00,
2013-04-15 16:32:00,86.5,63.9,29.67,SE,139,3.0,10.0,47,0.00,,---,0.00,VWS V14.01,2013-04-15 21:32:00,
2013-04-15 16:37:00,86.7,65.9,29.67,SE,136,1.0,10.0,50,0.00,,---,0.00,VWS V14.01,2013-04-15 21:37:00,
2013-04-15 16:42:00,87.4,64.7,29.67,SE,135,6.0,6.0,47,0.00,,---,0.00,VWS V14.01,2013-04-15 21:42:00,
2013-04-15 16:47:00,87.4,63.5,29.67,SSE,149,6.0,8.0,45,0.00,,---,0.00,VWS V14.01,2013-04-15 21:47:00,
2013-04-15 16:52:00,87.2,63.3,29.67,ESE,119,3.0,10.0,45,0.00,,---,0.00,VWS V14.01,2013-04-15 21:52:00,
2013-04-15 16:57:00,87.0,63.7,29.67,ESE,119,6.0,12.0,46,0.00,,---,0.00,VWS V14.01,2013-04-15 21:57:00,
2013-04-15 17:02:00,87.2,64.5,29.67,SE,139,5.0,6.0,47,0.00,,---,0.00,VWS V14.01,2013-04-15 22:02:00,
2013-04-15 17:08:00,87.0,63.1,29.67,SSE,163,6.0,12.0,45,0.00,,---,0.00,VWS V14.01,2013-04-15 22:08:00,
2013-04-15 17:13:00,86.5,63.3,29.67,South,169,8.0,8.0,46,0.00,,---,0.00,VWS V14.01,2013-04-15 22:13:00,
2013-04-15 17:18:00,86.3,63.1,29.67,ESE,111,3.0,10.0,46,0.00,,---,0.00,VWS V14.01,2013-04-15 22:18:00,
2013-04-15 17:23:00,86.3,63.1,29.67,South,176,5.0,6.0,46,0.00,,---,0.00,VWS V14.01,2013-04-15 22:23:00,
2013-04-15 17:27:00,86.5,63.9,29.67,SSE,152,3.0,8.0,47,0.00,,---,0.00,VWS V14.01,2013-04-15 22:27:00,
2013-04-15 17:32:00,86.5,64.5,29.66,South,169,2.0,3.0,48,0.00,,---,0.00,VWS V14.01,2013-04-15 22:32:00,
2013-04-15 17:37:00,86.5,64.5,29.66,SE,136,3.0,11.0,48,0.00,,---,0.00,VWS V14.01,2013-04-15 22:37:00,
2013-04-15 17:42:00,86.5,64.5,29.66,SSE,160,3.0,6.0,48,0.00,,---,0.00,VWS V14.01,2013-04-15 22:42:00,
2013-04-15 17:47:00,86.7,64.1,29.66,SE,145,5.0,7.0,47,0.00,,---,0.00,VWS V14.01,2013-04-15 22:47:00,
2013-04-15 17:52:00,86.7,64.1,29.66,SSE,157,2.0,7.0,47,0.00,,---,0.00,VWS V14.01,2013-04-15 22:52:00,
2013-04-15 17:57:00,86.3,63.7,29.66,South,177,5.0,10.0,47,0.00,,---,0.00,VWS V14.01,2013-04-15 22:57:00,
2013-04-15 18:02:00,85.9,63.3,29.67,South,190,7.0,8.0,47,0.00,,---,0.00,VWS V14.01,2013-04-15 23:02:00,
2013-04-15 18:07:00,85.9,64.0,29.66,South,180,3.0,8.0,48,0.00,,---,0.00,VWS V14.01,2013-04-15 23:07:00,
2013-04-15 18:12:00,85.7,63.8,29.66,SE,138,5.0,6.0,48,0.00,,---,0.00,VWS V14.01,2013-04-15 23:12:00,
2013-04-15 18:17:00,85.5,63.6,29.66,SE,133,2.0,7.0,48,0.00,,---,0.00,VWS V14.01,2013-04-15 23:17:00,
2013-04-15 18:22:00,85.5,63.0,29.66,SE,145,5.0,5.0,47,0.00,,---,0.00,VWS V14.01,2013-04-15 23:22:00,
2013-04-15 18:28:00,85.5,63.0,29.67,SE,139,3.0,5.0,47,0.00,,---,0.00,VWS V14.01,2013-04-15 23:28:00,
2013-04-15 18:33:00,85.3,62.8,29.67,ESE,114,3.0,5.0,47,0.00,,---,0.00,VWS V14.01,2013-04-15 23:33:00,
2013-04-15 18:38:00,85.1,64.4,29.66,SE,136,6.0,8.0,50,0.00,,---,0.00,VWS V14.01,2013-04-15 23:38:00,
2013-04-15 18:43:00,84.7,63.5,29.67,SSE,149,2.0,6.0,49,0.00,,---,0.00,VWS V14.01,2013-04-15 23:43:00,
2013-04-15 18:48:00,84.5,63.8,29.67,SE,139,5.0,7.0,50,0.00,,---,0.00,VWS V14.01,2013-04-15 23:48:00,
2013-04-15 18:53:00,84.0,63.4,29.67,SE,138,3.0,6.0,50,0.00,,---,0.00,VWS V14.01,2013-04-15 23:53:00,
2013-04-15 18:57:00,83.6,63.6,29.66,SE,136,2.0,6.0,51,0.00,,---,0.00,VWS V14.01,2013-04-15 23:57:00,
2013-04-15 19:03:00,83.2,63.8,29.66,SE,132,5.0,5.0,52,0.00,,---,0.00,VWS V14.01,2013-04-16 00:03:00,
2013-04-15 19:08:00,82.8,63.9,29.66,SE,131,2.0,5.0,53,0.00,,---,0.00,VWS V14.01,2013-04-16 00:08:00,
2013-04-15 19:13:00,82.6,64.3,29.66,SE,139,3.0,5.0,54,0.00,,---,0.00,VWS V14.01,2013-04-16 00:13:00,
2013-04-15 19:18:00,82.0,64.8,29.67,SE,139,2.0,5.0,56,0.00,,---,0.00,VWS V14.01,2013-04-16 00:18:00,
2013-04-15 19:23:00,81.4,64.2,29.66,SE,139,1.0,2.0,56,0.00,,---,0.00,VWS V14.01,2013-04-16 00:23:00,
2013-04-15 19:28:00,80.9,63.8,29.66,SE,139,0.0,3.0,56,0.00,,---,0.00,VWS V14.01,2013-04-16 00:28:00,
2013-04-15 19:33:00,80.7,65.1,29.67,SE,139,0.0,0.0,59,0.00,,---,0.00,VWS V14.01,2013-04-16 00:33:00,
2013-04-15 19:38:00,79.8,64.2,29.67,SE,139,2.0,3.0,59,0.00,,---,0.00,VWS V14.01,2013-04-16 00:38:00,
2013-04-15 19:43:00,79.6,64.5,29.67,SE,139,1.0,2.0,60,0.00,,---,0.00,VWS V14.01,2013-04-16 00:43:00,
2013-04-15 19:48:00,79.0,63.9,29.67,SE,139,2.0,3.0,60,0.00,,---,0.00,VWS V14.01,2013-04-16 00:48:00,
2013-04-15 19:53:00,78.6,64.5,29.67,SE,139,1.0,2.0,62,0.00,,---,0.00,VWS V14.01,2013-04-16 00:53:00,
2013-04-15 19:58:00,78.5,64.4,29.67,SE,139,2.0,2.0,62,0.00,,---,0.00,VWS V14.01,2013-04-16 00:58:00,
2013-04-15 20:02:00,78.1,64.5,29.67,SE,139,1.0,1.0,63,0.00,,---,0.00,VWS V14.01,2013-04-16 01:02:00,
2013-04-15 20:07:00,77.9,64.3,29.67,SE,139,0.0,1.0,63,0.00,,---,0.00,VWS V14.01,2013-04-16 01:07:00,
2013-04-15 20:13:00,77.7,64.6,29.67,SE,139,0.0,0.0,64,0.00,,---,0.00,VWS V14.01,2013-04-16 01:13:00,
2013-04-15 20:18:00,77.7,64.6,29.67,SE,139,0.0,0.0,64,0.00,,---,0.00,VWS V14.01,2013-04-16 01:18:00,